Vertical_Velocity
-2 -2 -2 -2 -2 -2 -2 -2 -3 -3 -3 -2 -2 -2 -2 -1 -1 -2 -2 -3 -3 -2 -2 -1 -1 -1 -1 -2 -2 -1 -1 -1 -1 -1 -1 -2 -2 -1 -1 -1 -2 -2 -2 -2 -2 -2 -1 -1 -1 -1 -1 -1 -0 -1 -1 -2 -2 -1 -0 1 1 2 2 2 1 1 0 -0 -0
-2 -1 -1 -2 -2 -2 -2 -2 -3 -3 -3 -3 -2 -2 -2 -2 -1 -1 -2 -2 -2 -2 -2 -1 -1 -1 -1 -1 -2 -1 -1 -1 -0 -0 -1 -1 -1 -1 -1 -1 -1 -2 -2 -2 -2 -2 -2 -1 -1 -1 -1 -1 -1 -1 -2 -2 -1 0 1 1 1 1 1 1 0 -0 -0 -1 -1
-2 -1 -1 -1 -1 -1 -2 -1 -2 -2 -2 -2 -2 -2 -2 -2 -2 -1 -1 -1 -2 -2 -2 -2 -1 -1 -1 -1 -1 -1 -1 -1 -1 -0 -0 -1 -1 -1 -1 -1 -1 -1 -2 -2 -2 -2 -2 -1 -1 -1 -1 -1 -1 -1 -2 -2 -0 1 2 2 1 1 0 0 -0 -0 -1 -0 -0
-1 -1 -1 -1 -1 -1 -1 -1 -2 -2 -2 -2 -2 -2 -2 -2 -2 -1 -1 -1 -2 -2 -2 -2 -1 -1 -1 -1 -1 -1 -2 -2 -1 -1 -0 -0 -0 -1 -1 -1 -1 -1 -1 -2 -2 -2 -2 -2 -1 -1 -1 -1 -1 -1 -1 -0 2 3 2 1 -0 -0 -0 -0 -1 -1 -0 -0 0
-1 -1 -1 -1 -1 -1 -2 -2 -2 -2 -3 -3 -2 -3 -3 -2 -2 -2 -2 -2 -1 -1 -1 -1 -1 -1 -1 -1 -1 -1 -2 -2 -2 -1 -1 -1 -0 -1 -1 -1 -1 -1 -1 -1 -2 -2 -3 -3 -2 -2 -2 -2 -1 -1 0 2 3 3 1 -0 -1 -1 -1 -1 -1 -0 0 1 1
-2 -2 -1 -1 -1 -2 -2 -3 -2 -3 -3 -3 -3 -3 -3 -3 -2 -2 -2 -1 -1 -1 -1 -1 -1 -1 -1 -1 -1 -1 -1 -1 -1 -1 -1 -1 -1 -1 -1 -1 -1 -1 -1 -1 -1 -2 -3 -3 -3 -3 -3 -2 -1 -0 1 3 3 2 0 -1 -2 -1 -1 -1 -0 1 2 2 1
-3 -3 -3 -2 -2 -2 -2 -3 -3 -3 -3 -3 -2 -2 -2 -2 -2 -1 -1 -1 -1 -1 -1 -1 -1 -1 -1 -0 -0 -0 -0 -1 -1 -1 -1 -1 -1 -1 -1 -1 -2 -2 -1 -1 -1 -2 -3 -3 -3 -3 -3 -2 -1 1 2 3 2 2 1 -1 -1 -1 -0 0 1 2 2 2 1
-3 -3 -3 -3 -3 -3 -2 -3 -3 -3 -3 -3 -2 -2 -2 -2 -2 -2 -2 -2 -2 -2 -2 -1 -1 -1 -0 -0 -0 -0 0 0 -0 -1 -1 -1 -1 -1 -1 -1 -1 -2 -1 -1 -1 -2 -3 -3 -3 -3 -3 -3 -1 0 1 2 2 2 2 1 0 0 1 2 2 2 2 2 2
-4 -4 -4 -4 -4 -3 -3 -3 -3 -3 -3 -3 -2 -2 -2 -2 -2 -2 -2 -2 -2 -2 -2 -2 -2 -1 -1 -1 -0 -0 0 1 1 0 -0 -0 -0 -0 -1 -1 -1 -2 -2 -1 -1 -2 -3 -3 -3 -3 -3 -3 -2 -0 1 2 3 3 3 3 2 2 2 2 2 2 2 2 2
-4 -4 -4 -5 -4 -4 -3 -3 -3 -3 -3 -2 -2 -2 -2 -2 -2 -2 -2 -1 -2 -2 -2 -2 -2 -2 -1 -1 -1 -0 0 1 1 1 1 1 1 0 -0 -1 -1 -2 -2 -1 -1 -2 -2 -3 -3 -3 -4 -4 -3 -2 0 3 4 5 5 4 3 2 2 1 1 2 2 2 2
-4 -4 -5 -5 -5 -4 -4 -3 -3 -2 -2 -2 -2 -1 -1 -1 -1 -1 -1 -1 -1 -1 -1 -2 -1 -2 -2 -1 -1 -0 0 1 1 2 2 2 2 1 0 -1 -2 -2 -2 -1 -1 -1 -2 -2 -2 -2 -3 -5 -5 -3 0 4 6 6 5 4 3 2 1 0 1 1 1 2 2
-4 -4 -4 -4 -4 -4 -3 -2 -2 -1 -1 -1 -1 -1 -0 -0 -0 -0 -1 -1 -0 -0 -1 -1 -1 -1 -1 -1 -1 -1 -0 1 1 2 2 3 3 2 1 -0 -2 -3 -3 -2 -1 -0 -1 -2 -2 -2 -3 -5 -6 -4 0 5 6 6 5 4 3 2 1 -0 -0 0 1 1 2
-3 -3 -3 -3 -3 -2 -2 -1 -1 -1 -0 -0 -1 -0 -0 -1 -1 -1 -1 -1 -0 -0 -0 -0 -0 -0 -1 -1 -1 -1 -0 0 1 2 2 3 3 3 2 0 -2 -3 -3 -2 -1 0 -0 -1 -2 -2 -3 -5 -6 -4 0 5 6 6 5 4 3 2 1 -0 -0 -0 0 1 1
-2 -2 -1 -1 -1 -1 -1 -1 -1 -0 -0 -0 -0 -0 -1 -1 -1 -1 -1 -1 -0 -0 -0 -0 -0 -0 -0 -1 -1 -1 -1 -0 1 2 3 3 4 4 3 0 -2 -4 -4 -3 -1 1 1 -1 -1 -2 -3 -4 -6 -4 0 5 6 6 6 5 4 2 1 0 -0 -0 0 1 2
-2 -1 -1 -0 -1 -1 -1 -1 -1 -1 -1 -1 -1 -1 -1 -1 -2 -2 -1 -1 -1 -0 0 0 -0 -0 -0 -0 -0 -1 -1 -0 0 2 3 4 5 4 3 0 -3 -4 -4 -3 -1 1 1 0 -1 -2 -3 -4 -5 -3 0 4 6 6 6 6 4 3 1 0 0 0 1 1 2
-1 -1 -1 -1 -1 -1 -2 -2 -2 -2 -2 -2 -2 -2 -2 -2 -2 -1 -1 -1 -1 -0 1 1 1 1 1 0 1 0 0 0 1 2 3 4 6 5 4 0 -3 -4 -5 -4 -1 1 2 1 -1 -2 -3 -4 -4 -2 1 4 5 6 6 5 4 3 1 0 0 0 1 2 3
-1 -2 -2 -2 -2 -2 -2 -3 -3 -3 -3 -3 -3 -3 -2 -1 -1 -1 -1 -0 0 1 1 1 1 2 1 1 1 1 1 1 1 2 4 5 6 6 4 1 -3 -4 -5 -4 -1 1 2 1 -1 -2 -3 -4 -3 -1 1 4 4 5 5 5 4 3 1 0 -0 0 1 3 4
-2 -3 -3 -3 -3 -3 -3 -3 -3 -3 -3 -3 -2 -2 -1 -0 0 0 0 1 1 2 2 2 2 2 2 1 0 0 1 1 1 2 4 5 6 6 4 1 -2 -4 -5 -4 -0 2 3 1 -0 -2 -3 -3 -2 -0 2 3 3 4 4 4 4 3 2 0 -0 1 2 4 4
-3 -4 -4 -4 -4 -4 -4 -3 -3 -2 -2 -1 -1 -0 -0 1 1 2 2 1 2 2 3 2 2 2 2 2 1 0 0 1 2 2 4 5 6 6 4 2 -1 -4 -5 -5 -1 2 3 2 0 -1 -2 -2 -1 1 2 3 3 3 4 5 5 4 2 0 0 2 3 4 4
-4 -4 -4 -4 -4 -4 -4 -3 -2 -1 -0 -0 0 1 1 1 2 2 3 2 2 2 2 2 2 2 2 2 2 1 0 1 2 2 3 5 6 6 5 3 1 -2 -5 -6 -1 2 3 3 1 -1 -1 -1 1 2 3 2 2 3 4 6 5 3 1 -0 1 2 4 4 4
-4 -4 -4 -4 -4 -3 -2 -1 -0 0 0 0 1 1 1 1 2 2 2 2 2 2 2 2 2 2 1 1 1 0 0 0 1 2 3 5 6 6 5 4 3 -0 -3 -5 -1 1 2 2 2 1 1 2 2 3 2 1 1 1 3 4 2 1 -0 -0 1 2 3 3 4
-4 -4 -3 -3 -3 -2 -1 -0 -0 0 0 0 0 1 1 1 1 2 2 2 2 3 3 3 2 1 -0 -1 -1 -0 0 1 2 2 4 5 7 7 6 6 4 2 -1 -2 -0 1 2 3 3 3 3 3 2 1 -0 -1 -1 0 2 3 1 0 -0 0 1 2 2 3 3
-4 -3 -2 -1 -1 -0 -0 -0 -0 -0 -0 -0 -0 -0 0 1 1 2 2 2 3 3 3 3 2 0 -1 -2 -1 -1 0 1 2 3 4 6 8 8 7 6 5 3 1 1 2 3 3 4 4 4 3 2 1 -0 -1 -2 -1 1 3 3 2 0 0 1 2 2 2 2 2
-2 -2 -1 -0 -0 -0 -0 -1 -1 -1 -1 -1 -1 -1 -0 0 1 1 2 3 3 4 3 2 0 -0 -1 -1 -1 -0 0 1 2 3 5 6 8 8 8 7 6 4 3 3 4 4 5 5 3 2 2 2 1 -0 -1 -1 1 3 4 4 1 0 1 2 2 2 2 2 1
-1 -1 -1 -0 -0 -0 -1 -1 -2 -2 -2 -1 -1 -1 -0 -0 0 1 2 3 3 3 2 0 -1 -1 -1 -1 -1 -1 -0 1 2 4 5 7 9 9 9 8 7 5 4 5 5 6 6 4 3 2 2 -0 -1 -1 -1 -1 2 4 5 2 -0 -0 2 4 2 2 2 2 0
-1 -1 -1 -0 -0 -1 -1 -2 -2 -2 -2 -1 -1 -1 -1 -1 -0 1 2 3 3 2 1 -1 -2 -2 -1 -1 -1 -1 -0 1 2 4 5 7 9 9 9 9 7 5 4 5 7 7 7 5 7 6 2 -1 -1 -1 -2 -1 2 4 3 -0 -1 0 3 4 2 2 2 2 1
-1 -1 -1 -1 -1 -1 -1 -1 -1 -1 -1 -1 -2 -2 -2 -1 -0 1 2 3 3 2 0 -1 -2 -2 -2 -2 -1 -1 -0 1 2 4 6 7 9 10 10 10 8 6 4 4 6 7 8 10 12 9 4 1 0 -0 -1 -1 2 2 1 -2 -1 1 2 2 1 1 1 2 1
-2 -2 -2 -2 -1 -1 -1 -1 -1 -2 -2 -2 -2 -2 -1 -1 -0 1 2 3 2 1 -0 -2 -2 -2 -2 -2 -1 -1 0 1 3 4 6 7 9 10 11 11 9 6 4 3 5 8 11 14 11 8 5 3 2 0 -0 0 1 -0 -1 -2 -1 -0 1 1 1 2 2 2 2
-2 -2 -2 -3 -2 -1 -1 -2 -2 -3 -3 -3 -2 -2 -1 -0 1 1 2 2 1 -0 -2 -3 -2 -2 -2 -2 -1 -0 0 1 3 4 6 7 8 9 10 12 10 7 4 2 6 12 17 15 8 5 4 4 2 1 0 0 -1 -2 -2 -3 -2 -1 2 3 3 3 3 3 2
-2 -3 -3 -3 -2 -2 -2 -2 -3 -3 -4 -3 -1 -1 -0 0 0 0 1 1 0 -0 -1 -2 -2 -2 -2 -2 -1 -0 0 2 3 4 5 6 7 8 9 11 10 6 3 2 8 14 17 11 6 4 4 4 2 1 0 -0 -1 -2 -4 -5 -3 1 4 4 3 3 3 4 4
-2 -3 -3 -3 -3 -3 -3 -3 -3 -3 -3 -2 -1 0 -0 -1 -1 -1 -0 0 1 0 -0 -1 -1 -1 -1 -1 -1 -0 1 2 3 4 4 4 4 5 7 9 8 5 2 1 10 13 12 6 3 2 2 2 1 0 -1 -1 -2 -4 -6 -7 -2 3 5 4 3 3 4 5 5
-2 -3 -4 -4 -3 -2 -2 -2 -3 -3 -2 -1 -0 -0 -1 -1 -1 -0 0 1 1 -0 -1 -1 -1 -1 -1 -0 -0 0 1 1 2 3 2 2 1 2 4 6 5 2 1 1 8 11 10 3 1 1 1 2 1 -0 -1 -1 -2 -5 -8 -8 0 5 6 4 3 4 4 4 5
-2 -3 -4 -3 -3 -2 -2 -2 -1 -1 -0 0 -0 -1 -1 -1 -1 -0 -0 0 -0 -1 -2 -2 -2 -2 -1 -1 -0 0 1 1 2 2 1 0 -1 -0 1 2 1 -0 -1 -0 6 10 9 2 0 -0 1 1 1 -0 -1 -1 -2 -6 -8 -6 1 5 6 4 3 4 4 3 3
-2 -3 -3 -3 -2 -2 -2 -1 -0 0 0 -0 -1 -1 -2 -1 -1 -1 -1 -0 -0 -1 -1 -3 -3 -2 -2 -1 -0 0 1 1 1 1 1 0 -1 -2 -1 -0 -1 -2 -2 -1 4 8 8 0 -1 -1 0 1 1 0 -0 -1 -3 -6 -7 -4 2 4 5 3 3 3 3 2 2
-2 -2 -3 -3 -3 -2 -1 -0 1 1 -0 -1 -1 -2 -1 -1 -1 -1 -1 -1 -1 -1 -1 -1 -2 -1 -1 -0 -0 0 0 1 0 0 0 0 -0 -1 -1 -1 -2 -3 -4 -2 1 4 5 -2 -3 -2 -1 -0 0 0 -0 -0 -2 -4 -5 -3 1 3 4 3 3 2 2 2 1
-3 -3 -3 -3 -3 -2 -1 0 1 -0 -1 -2 -2 -2 -2 -2 -2 -2 -2 -2 -1 -1 -1 -1 -1 -1 -0 -0 0 0 -0 -0 -0 -0 -0 -0 -0 -0 -1 -1 -2 -4 -4 -2 -1 2 2 -4 -4 -4 -3 -2 -1 -0 0 0 -1 -2 -3 -3 -0 2 3 3 2 2 2 1 1
-3 -3 -3 -3 -3 -2 -1 0 -0 -1 -2 -3 -3 -2 -2 -2 -4 -4 -4 -4 -3 -2 -1 -1 -1 -1 -1 -0 -0 -0 -0 -0 -1 -1 -1 -1 -0 -0 -0 -1 -3 -4 -4 -2 -1 0 -0 -5 -6 -6 -4 -3 -1 0 1 1 0 -1 -2 -2 -1 0 1 2 1 1 0 0 -0
-3 -4 -4 -4 -3 -1 -1 -1 -1 -2 -3 -3 -2 -2 -2 -3 -5 -6 -7 -6 -5 -4 -3 -2 -1 -1 -1 -1 -1 -0 -0 -0 -1 -1 -1 -1 -1 -0 -0 -0 -2 -4 -4 -1 0 -1 -5 -8 -7 -5 -4 -2 -0 1 1 1 0 -0 -1 -2 -2 -1 0 1 0 -0 -1 -1 -2
-4 -5 -4 -4 -2 -1 -1 -2 -3 -3 -3 -3 -2 -3 -4 -5 -6 -7 -7 -7 -5 -4 -3 -2 -2 -1 -1 -1 -1 -1 -0 -0 -0 -1 -1 -2 -2 -2 -1 -0 -0 -1 -2 -1 -1 -6 -9 -9 -4 -1 -0 0 1 1 1 1 0 -0 -1 -2 -2 -2 -1 0 -0 -1 -2 -2 -3
-4 -5 -4 -3 -2 -1 -1 -2 -3 -3 -3 -2 -3 -4 -4 -5 -6 -7 -7 -6 -5 -4 -3 -2 -2 -1 -1 -1 -1 -1 -0 -0 -0 -1 -1 -2 -3 -3 -3 -2 -0 0 0 -1 -4 -9 -10 -6 -2 1 1 1 0 0 0 -0 -1 -1 -2 -2 -3 -2 -2 -1 -1 -2 -2 -3 -4
-4 -4 -4 -3 -2 -2 -3 -3 -3 -3 -2 -3 -3 -3 -3 -4 -6 -6 -6 -5 -3 -2 -2 -2 -2 -1 -1 -1 -1 -1 -0 0 -0 -0 -1 -1 -2 -2 -2 -2 -1 -1 -1 -2 -5 -7 -7 -4 -2 -1 -0 -0 -0 -0 -1 -1 -1 -1 -2 -2 -3 -3 -2 -2 -2 -3 -3 -4 -4
Height
5502 5499 5495 5492 5489 5485 5482 5479 5475 5472 5469 5466 5463 5460 5458 5455 5452 5449 5446 5444 5441 5439 5436 5434 5431 5429 5426 5424 5422 5419 5417 5415 5413 5411 5409 5408 5406 5404 5403 5401 5400 5399 5397 5396 5395 5394 5394 5393 5393 5392 5392 5391 5392 5392 5393 5394 5395 5397 5398 5400 5401 5403 5404 5406 5408 5410 5413 5416 5419
5500 5496 5493 5489 5486 5483 5479 5476 5473 5469 5466 5463 5460 5457 5454 5452 5449 5446 5443 5440 5438 5435 5433 5430 5428 5425 5423 5420 5418 5416 5414 5412 5410 5408 5406 5404 5402 5400 5399 5397 5396 5394 5393 5392 5391 5390 5390 5389 5389 5388 5387 5387 5387 5388 5389 5389 5391 5393 5394 5395 5396 5398 5399 5401 5403 5405 5408 5411 5414
5498 5494 5491 5487 5484 5480 5477 5474 5470 5467 5464 5460 5457 5454 5451 5449 5446 5443 5440 5437 5435 5432 5429 5427 5424 5422 5419 5417 5415 5413 5410 5409 5406 5404 5403 5400 5399 5397 5395 5394 5392 5391 5389 5388 5387 5386 5386 5385 5384 5384 5383 5383 5383 5384 5384 5385 5387 5389 5390 5391 5392 5393 5395 5396 5398 5401 5403 5406 5409
5496 5492 5489 5485 5481 5478 5474 5471 5468 5464 5461 5458 5455 5452 5449 5446 5443 5440 5437 5434 5432 5429 5426 5424 5421 5419 5417 5414 5412 5409 5407 5405 5403 5401 5399 5397 5395 5393 5392 5390 5389 5387 5386 5384 5384 5382 5381 5381 5380 5379 5379 5379 5379 5379 5381 5382 5383 5384 5385 5386 5387 5389 5390 5392 5394 5396 5399 5402 5405
5494 5490 5487 5483 5479 5476 5472 5469 5465 5462 5459 5455 5452 5449 5446 5443 5440 5437 5434 5432 5429 5426 5423 5421 5418 5416 5414 5411 5409 5406 5404 5402 5400 5398 5396 5394 5392 5390 5388 5386 5385 5383 5382 5381 5379 5379 5378 5377 5376 5375 5375 5375 5375 5376 5377 5378 5379 5380 5380 5381 5383 5384 5386 5388 5390 5393 5395 5398 5400
5492 5488 5484 5481 5477 5474 5470 5466 5463 5459 5456 5453 5449 5446 5443 5440 5437 5434 5431 5428 5425 5423 5420 5418 5415 5413 5410 5408 5405 5403 5401 5399 5396 5394 5392 5390 5388 5386 5384 5383 5381 5380 5378 5377 5376 5375 5374 5373 5372 5371 5371 5371 5371 5372 5373 5374 5375 5375 5376 5378 5379 5380 5382 5384 5387 5389 5391 5394 5396
5490 5486 5482 5479 5475 5471 5468 5464 5461 5457 5454 5450 5447 5444 5440 5437 5434 5431 5428 5425 5422 5419 5417 5414 5412 5409 5407 5404 5402 5400 5397 5395 5393 5391 5389 5387 5385 5383 5381 5379 5378 5376 5375 5374 5372 5371 5370 5369 5368 5368 5367 5367 5368 5368 5369 5370 5371 5372 5373 5374 5375 5377 5379 5381 5383 5385 5387 5389 5392
5488 5484 5480 5477 5473 5469 5465 5462 5458 5454 5451 5448 5444 5441 5437 5434 5431 5428 5425 5422 5419 5416 5413 5410 5408 5405 5403 5401 5398 5396 5394 5392 5389 5387 5385 5383 5381 5379 5378 5376 5374 5373 5371 5370 5369 5367 5366 5365 5364 5364 5364 5364 5364 5364 5365 5366 5367 5369 5369 5371 5372 5374 5375 5377 5379 5381 5383 5385 5388
5485 5482 5478 5474 5471 5467 5463 5459 5456 5452 5449 5445 5441 5438 5434 5431 5428 5425 5422 5419 5415 5413 5409 5407 5404 5402 5399 5397 5394 5392 5390 5388 5386 5384 5382 5380 5378 5376 5374 5372 5370 5369 5368 5366 5365 5364 5363 5362 5361 5360 5360 5359 5360 5360 5361 5362 5364 5365 5366 5368 5369 5370 5371 5373 5375 5377 5379 5381 5384
5484 5480 5476 5472 5469 5465 5461 5457 5454 5450 5446 5443 5439 5435 5432 5429 5425 5422 5419 5415 5412 5409 5406 5403 5400 5398 5395 5393 5390 5388 5386 5384 5382 5380 5378 5376 5374 5372 5370 5368 5367 5365 5364 5363 5362 5360 5359 5359 5358 5357 5356 5356 5356 5356 5358 5359 5360 5362 5363 5364 5365 5366 5367 5369 5370 5372 5375 5377 5379
5481 5478 5474 5470 5466 5463 5459 5455 5451 5447 5444 5440 5436 5433 5429 5426 5422 5419 5415 5412 5409 5406 5403 5400 5397 5394 5391 5389 5386 5384 5382 5380 5378 5376 5374 5372 5370 5368 5366 5364 5363 5361 5360 5359 5358 5357 5356 5355 5354 5354 5353 5352 5352 5353 5354 5355 5357 5358 5359 5360 5361 5362 5363 5364 5366 5368 5370 5373 5376
5479 5475 5472 5468 5464 5460 5457 5453 5449 5445 5442 5438 5434 5430 5427 5423 5419 5416 5412 5409 5405 5402 5399 5396 5393 5390 5387 5384 5382 5380 5378 5375 5373 5371 5369 5368 5366 5364 5362 5360 5358 5357 5356 5355 5355 5354 5353 5352 5351 5350 5349 5349 5349 5349 5350 5352 5353 5354 5355 5356 5357 5358 5359 5361 5362 5364 5366 5369 5372
5477 5474 5469 5466 5462 5458 5454 5451 5447 5443 5439 5435 5432 5428 5424 5420 5416 5413 5409 5405 5402 5398 5395 5392 5389 5385 5382 5379 5377 5374 5373 5370 5369 5367 5365 5363 5361 5359 5357 5355 5354 5353 5352 5352 5351 5350 5349 5349 5348 5347 5346 5346 5345 5346 5347 5349 5350 5351 5352 5353 5354 5354 5356 5357 5359 5361 5363 5365 5368
5476 5472 5468 5464 5460 5457 5453 5449 5445 5441 5437 5433 5429 5425 5421 5417 5413 5409 5405 5401 5398 5394 5390 5387 5384 5380 5377 5374 5371 5369 5367 5365 5363 5361 5360 5358 5356 5354 5352 5350 5349 5348 5348 5348 5347 5347 5346 5345 5344 5343 5343 5342 5342 5343 5344 5345 5346 5347 5349 5349 5350 5351 5352 5354 5355 5357 5359 5362 5364
5474 5470 5467 5463 5459 5455 5451 5447 5443 5439 5434 5430 5426 5422 5418 5414 5409 5405 5401 5397 5393 5389 5385 5382 5378 5374 5371 5368 5365 5363 5361 5359 5357 5356 5354 5353 5351 5349 5347 5345 5344 5343 5343 5343 5344 5343 5343 5342 5341 5340 5339 5339 5339 5340 5341 5342 5343 5344 5345 5346 5347 5348 5349 5350 5352 5354 5356 5359 5361
5473 5469 5465 5461 5457 5453 5449 5444 5440 5436 5432 5427 5423 5418 5414 5409 5405 5400 5396 5392 5388 5384 5380 5376 5372 5369 5365 5362 5359 5357 5355 5353 5351 5350 5349 5347 5345 5344 5342 5340 5339 5338 5339 5339 5339 5339 5339 5338 5337 5336 5336 5336 5336 5337 5337 5338 5339 5340 5341 5342 5343 5344 5346 5347 5349 5351 5353 5356 5358
5472 5468 5464 5459 5455 5450 5446 5442 5437 5433 5428 5424 5419 5414 5410 5405 5400 5396 5391 5387 5382 5378 5374 5370 5366 5362 5359 5356 5353 5350 5348 5346 5345 5344 5342 5341 5339 5338 5336 5334 5333 5333 5334 5334 5335 5336 5335 5334 5334 5333 5333 5333 5333 5334 5334 5335 5336 5337 5338 5339 5340 5341 5342 5344 5345 5348 5350 5353 5355
5470 5466 5462 5457 5453 5448 5444 5439 5434 5429 5425 5420 5415 5410 5406 5401 5396 5391 5386 5382 5377 5372 5368 5364 5360 5356 5352 5349 5346 5343 5341 5339 5338 5337 5336 5334 5334 5332 5330 5329 5328 5328 5329 5330 5331 5332 5332 5331 5330 5330 5330 5330 5330 5330 5331 5332 5333 5334 5334 5336 5337 5338 5339 5340 5343 5345 5348 5350 5352
5468 5464 5459 5455 5450 5446 5441 5436 5431 5426 5421 5417 5412 5407 5402 5397 5392 5387 5382 5377 5372 5367 5362 5358 5353 5349 5345 5342 5339 5336 5334 5332 5330 5329 5329 5328 5327 5326 5324 5324 5323 5323 5324 5325 5327 5328 5328 5327 5327 5326 5326 5327 5327 5328 5328 5329 5329 5330 5332 5333 5334 5335 5336 5338 5340 5342 5344 5347 5349
5466 5462 5457 5453 5448 5443 5438 5433 5428 5424 5419 5414 5409 5404 5399 5393 5388 5383 5377 5372 5366 5361 5356 5351 5346 5342 5338 5334 5331 5328 5325 5323 5322 5321 5321 5320 5320 5319 5319 5318 5318 5319 5319 5320 5322 5324 5324 5324 5324 5323 5323 5324 5324 5325 5325 5325 5326 5327 5329 5330 5331 5332 5333 5334 5337 5339 5341 5344 5346
5464 5459 5455 5450 5445 5441 5436 5431 5426 5421 5416 5411 5406 5401 5395 5390 5384 5378 5372 5367 5361 5355 5350 5344 5339 5334 5330 5326 5322 5319 5316 5314 5313 5313 5313 5313 5313 5313 5313 5313 5314 5314 5315 5316 5318 5319 5320 5320 5321 5321 5321 5321 5322 5322 5322 5322 5323 5324 5325 5326 5327 5329 5330 5332 5334 5336 5339 5341 5343
5462 5457 5453 5448 5443 5439 5434 5429 5424 5419 5414 5408 5403 5398 5392 5386 5380 5374 5368 5362 5355 5349 5344 5338 5332 5327 5322 5317 5313 5310 5307 5306 5304 5304 5304 5305 5306 5307 5307 5308 5309 5310 5311 5312 5314 5316 5317 5317 5318 5318 5318 5318 5319 5319 5319 5319 5320 5321 5322 5324 5324 5326 5328 5329 5332 5334 5336 5338 5340
5460 5455 5451 5446 5442 5437 5432 5427 5422 5416 5411 5405 5400 5394 5388 5382 5376 5370 5363 5357 5350 5344 5337 5331 5325 5319 5314 5309 5305 5302 5299 5298 5297 5296 5297 5298 5300 5301 5302 5303 5305 5306 5308 5309 5311 5313 5314 5314 5315 5315 5316 5316 5316 5315 5315 5316 5318 5319 5320 5321 5322 5324 5325 5327 5329 5332 5334 5336 5338
5459 5454 5449 5445 5440 5435 5430 5425 5419 5414 5409 5403 5397 5391 5385 5379 5372 5366 5359 5352 5345 5338 5331 5325 5319 5313 5307 5303 5299 5296 5293 5292 5291 5291 5291 5293 5294 5296 5298 5299 5301 5303 5305 5307 5309 5310 5312 5313 5314 5314 5314 5313 5313 5313 5313 5314 5316 5317 5318 5319 5320 5322 5324 5325 5328 5329 5332 5334 5336
5458 5453 5449 5444 5439 5434 5428 5423 5417 5412 5406 5400 5394 5388 5382 5375 5369 5361 5354 5347 5340 5333 5326 5319 5313 5307 5302 5298 5294 5291 5289 5288 5287 5287 5288 5289 5291 5293 5295 5297 5299 5300 5302 5305 5307 5309 5311 5314 5316 5314 5310 5310 5310 5311 5311 5312 5314 5315 5316 5316 5318 5319 5322 5324 5326 5328 5330 5332 5334
5457 5452 5447 5442 5437 5432 5426 5421 5415 5409 5404 5398 5391 5385 5378 5372 5364 5357 5350 5342 5335 5328 5320 5314 5308 5303 5299 5294 5291 5289 5286 5285 5284 5284 5285 5287 5289 5291 5294 5295 5297 5299 5301 5303 5306 5308 5311 5314 5315 5312 5308 5308 5309 5309 5309 5310 5311 5312 5314 5314 5316 5318 5320 5322 5324 5326 5329 5331 5333
5456 5451 5446 5441 5436 5430 5425 5419 5414 5408 5401 5395 5389 5382 5375 5368 5361 5354 5346 5338 5331 5323 5316 5310 5304 5300 5296 5292 5289 5287 5285 5284 5283 5283 5284 5286 5289 5291 5293 5295 5297 5298 5299 5302 5305 5308 5311 5314 5313 5309 5307 5307 5307 5308 5308 5309 5309 5310 5311 5312 5314 5315 5318 5320 5322 5324 5327 5329 5332
5455 5450 5445 5440 5434 5429 5424 5418 5412 5406 5400 5393 5387 5380 5373 5365 5358 5350 5343 5335 5327 5320 5313 5307 5302 5298 5294 5291 5289 5286 5284 5283 5283 5284 5285 5287 5289 5292 5294 5295 5297 5298 5299 5301 5305 5310 5313 5311 5309 5307 5306 5306 5306 5306 5307 5307 5308 5309 5309 5310 5311 5313 5316 5318 5321 5323 5326 5328 5330
5454 5449 5444 5439 5433 5428 5422 5416 5410 5404 5398 5391 5384 5378 5371 5364 5356 5348 5340 5332 5324 5317 5311 5305 5301 5297 5294 5291 5288 5286 5285 5284 5284 5284 5286 5288 5290 5292 5294 5295 5297 5297 5298 5301 5307 5311 5311 5307 5306 5305 5305 5305 5305 5305 5305 5306 5306 5307 5307 5308 5309 5312 5314 5317 5320 5322 5324 5327 5329
5453 5448 5443 5438 5432 5427 5421 5415 5409 5403 5396 5390 5383 5376 5369 5362 5354 5346 5338 5330 5322 5316 5310 5304 5300 5297 5294 5291 5289 5287 5286 5285 5285 5286 5287 5289 5290 5292 5294 5295 5296 5297 5298 5301 5307 5310 5308 5304 5304 5304 5304 5304 5304 5304 5304 5305 5305 5305 5305 5306 5308 5311 5314 5316 5318 5320 5323 5325 5328
5452 5447 5442 5437 5431 5426 5420 5414 5408 5401 5395 5389 5382 5375 5369 5361 5353 5344 5336 5329 5321 5315 5309 5305 5301 5298 5294 5292 5290 5288 5287 5287 5287 5287 5288 5289 5291 5292 5294 5295 5296 5296 5298 5300 5305 5307 5305 5303 5302 5303 5303 5303 5303 5303 5303 5304 5304 5304 5303 5304 5307 5310 5313 5315 5317 5319 5321 5324 5326
5452 5447 5441 5436 5430 5425 5419 5413 5407 5401 5394 5388 5382 5375 5368 5360 5352 5344 5335 5328 5321 5314 5309 5305 5301 5298 5295 5293 5291 5290 5289 5288 5288 5289 5289 5290 5291 5292 5293 5294 5295 5296 5297 5299 5304 5305 5303 5301 5301 5302 5302 5303 5303 5302 5303 5303 5304 5303 5302 5303 5306 5309 5312 5314 5315 5318 5320 5322 5324
5451 5446 5441 5436 5430 5425 5419 5413 5407 5401 5394 5388 5382 5375 5368 5360 5352 5343 5335 5328 5321 5314 5309 5305 5302 5299 5296 5294 5293 5291 5291 5290 5290 5290 5290 5291 5291 5292 5293 5294 5294 5295 5297 5299 5302 5304 5302 5299 5300 5301 5301 5302 5302 5302 5302 5303 5303 5302 5301 5302 5305 5308 5310 5312 5314 5315 5318 5320 5322
5451 5446 5441 5435 5430 5425 5419 5413 5407 5401 5395 5388 5382 5375 5368 5360 5352 5344 5336 5328 5321 5315 5310 5306 5303 5300 5298 5296 5294 5293 5293 5292 5292 5292 5292 5292 5292 5293 5293 5294 5294 5295 5296 5298 5301 5303 5301 5298 5299 5299 5300 5301 5301 5302 5302 5302 5302 5302 5301 5302 5304 5307 5309 5310 5312 5314 5316 5318 5320
5451 5446 5441 5435 5430 5425 5419 5414 5408 5402 5395 5389 5382 5375 5368 5360 5353 5345 5337 5329 5322 5316 5311 5307 5304 5301 5299 5297 5296 5295 5294 5294 5293 5293 5293 5294 5294 5294 5294 5295 5295 5295 5296 5298 5300 5301 5301 5297 5297 5298 5299 5300 5301 5301 5302 5302 5302 5301 5301 5302 5304 5306 5308 5309 5311 5312 5314 5316 5318
5451 5446 5441 5436 5430 5425 5419 5414 5408 5402 5395 5389 5382 5375 5368 5361 5354 5345 5337 5330 5323 5317 5313 5309 5305 5303 5301 5299 5298 5296 5296 5295 5295 5295 5295 5295 5295 5295 5296 5296 5296 5296 5296 5298 5300 5301 5300 5297 5297 5297 5299 5299 5300 5301 5301 5302 5301 5301 5301 5301 5303 5304 5306 5308 5309 5311 5313 5314 5316
5450 5445 5441 5436 5430 5425 5420 5414 5408 5402 5395 5389 5382 5376 5369 5362 5354 5346 5338 5330 5324 5319 5314 5310 5307 5304 5302 5301 5299 5298 5297 5297 5296 5296 5296 5296 5296 5297 5297 5297 5296 5296 5297 5298 5300 5301 5299 5298 5297 5297 5298 5299 5300 5301 5301 5301 5301 5301 5300 5301 5302 5303 5305 5306 5308 5309 5311 5313 5315
5450 5445 5441 5436 5430 5425 5420 5414 5409 5402 5396 5389 5383 5376 5369 5362 5354 5346 5339 5332 5325 5319 5315 5311 5308 5306 5304 5302 5300 5299 5299 5298 5298 5297 5297 5297 5297 5297 5297 5297 5297 5297 5298 5299 5300 5300 5299 5296 5297 5298 5299 5299 5300 5300 5300 5300 5300 5300 5300 5300 5300 5302 5303 5305 5306 5308 5309 5312 5314
5450 5445 5440 5436 5431 5425 5420 5414 5409 5403 5396 5390 5383 5376 5369 5362 5355 5347 5340 5333 5326 5321 5316 5313 5310 5307 5305 5303 5302 5301 5300 5299 5299 5298 5298 5298 5298 5298 5298 5298 5298 5298 5299 5299 5299 5298 5297 5296 5297 5299 5299 5299 5299 5300 5300 5299 5299 5299 5299 5299 5299 5301 5302 5304 5305 5307 5309 5310 5313
5450 5445 5440 5436 5431 5426 5420 5415 5409 5403 5397 5390 5384 5377 5371 5364 5356 5349 5342 5335 5329 5323 5319 5315 5311 5309 5306 5304 5303 5302 5301 5300 5300 5299 5299 5299 5299 5299 5299 5299 5299 5299 5299 5299 5298 5297 5296 5297 5298 5299 5299 5299 5299 5299 5299 5299 5298 5298 5298 5298 5299 5300 5301 5303 5304 5306 5308 5309 5312
5450 5445 5441 5436 5431 5426 5421 5415 5409 5404 5398 5391 5385 5379 5372 5365 5358 5351 5345 5338 5332 5326 5321 5317 5314 5310 5308 5306 5304 5303 5302 5302 5301 5300 5300 5300 5299 5299 5299 5299 5299 5299 5299 5299 5298 5297 5297 5298 5298 5299 5299 5299 5299 5298 5298 5298 5298 5298 5298 5298 5298 5299 5301 5302 5304 5305 5307 5309 5310